Simultaneous Nadir Overpasses (SNOs) Predictions

Prediction of SNOs between GOES-16 and NOAA-19 Satellite Orbit:

Table of predicted SNOs for the next 14.0 days since TLE Epoch: 9/7/2019
Index Date Time (GOES-16) GOES-16 Lat,Lon NOAA-19 Lat,Lon Distance(km) Time Diff (sec)
1 09/07/2019 09:54:40 -0.01, -75.20 -0.78, -71.81 386.13 80
2 09/09/2019 22:15:53 0.01, -75.20 -0.40, -76.83 187.11 80
3 09/10/2019 22:06:56 0.00, -75.20 0.31, -74.00 138.21 80
4 09/11/2019 21:55:17 0.00, -75.21 0.96, -71.16 463.62 80
5 09/13/2019 10:27:53 0.00, -75.24 0.87, -78.95 424.37 80
6 09/14/2019 10:16:15 0.00, -75.25 0.20, -76.11 98.42 80
7 09/15/2019 10:01:56 0.01, -75.26 -0.47, -73.27 227.68 80
8 09/17/2019 22:25:50 -0.01, -75.29 -0.73, -78.29 343.17 80
9 09/18/2019 22:14:13 -0.01, -75.30 -0.01, -75.46 17.12 80
10 09/19/2019 21:59:54 -0.01, -75.32 0.65, -72.62 309.58 80




NCC Satellite Simultaneous Nadir Overpasses (SNOs) Prediction Service
